Regional Weather Roundup
Issued by NWS

Home | Current Version | Previous Version | Text Only | Print | Product List | Glossary Off
Versions: 1 2 3 4 5 6 7 8 9 10 11 12 13 14 15 16 17 18 19 20 21 22 23 24 25 26 27 28 29 30 31 32 33 34 35 36 37 38 39 40 41 42 43 44 45 46 47 48 49 50

000
ASUS43 KLMK 131102
RWRKY
KENTUCKY REGIONAL WEATHER ROUNDUP
NATIONAL WEATHER SERVICE LOUISVILLE KY
600 AM EST SAT FEB 13 2016

NOTE "FAIR" INDICATES FEW OR NO CLOUDS BELOW 12,000 FEET
WITH NO SIGNIFICANT WEATHER AND/OR OBSTRUCTIONS TO VISIBILITY.

KYZ001>023-026-027-061>063-070>075-131200-
WESTERN AND SOUTH CENTRAL KENTUCKY

CITY           SKY/WX    TMP DP  RH WIND       PRES   REMARKS
PADUCAH        CLEAR     18   6  59 N15       30.56R WCI   4
HENDERSON      CLEAR     16   3  57 N7        30.57R WCI   6
OWENSBORO      CLEAR     16   5  61 N13       30.55R WCI   2
HOPKINSVILLE   CLEAR     19   7  59 N10       30.52R WCI   7
BOWLING GREEN  CLEAR     20   5  52 NW9       30.51R WCI   9
GLASGOW        NOT AVBL
$$

KYZ024-025-028>034-038-045-046-053-131200-
NORTH CENTRAL KENTUCKY

CITY           SKY/WX    TMP DP  RH WIND       PRES   REMARKS
LOUISVILLE/SDF PTCLDY    17  -1  45 NW14      30.50R WCI   3
LOUISVILLE/LOU CLEAR     17   1  49 N7        30.50R WCI   8
FORT KNOX      CLEAR     15   5  66 NW6       30.46R WCI   6
$$

KYZ035>037-039>044-047>052-055>060-089>105-131200-
NORTHEAST KENTUCKY

CITY           SKY/WX    TMP DP  RH WIND       PRES   REMARKS
LEXINGTON      MOCLDY    15   5  64 NW9       30.42R WCI   3
COVINGTON      MOCLDY    12   2  64 NW12      30.43R WCI  -2
FRANKFORT      CLEAR     16   2  54 NW7       30.44R WCI   6
$$

KYZ054-064>069-076>088-106>120-131200-
SOUTHEAST KENTUCKY

CITY           SKY/WX    TMP DP  RH WIND       PRES   REMARKS
JACKSON        LGT SNOW  16   9  74 VRB5      30.34R WCI   9
LONDON         CLOUDY    19  10  68 N9        30.37R WCI   8
SOMERSET       NOT AVBL
MIDDLESBORO    NOT AVBL
MONTICELLO     MOSUNNY   19   8  62 N12G17    30.43R WCI   7
$$




USA.gov is the U.S. government's official web portal to all federal, state and local government web resources and services.